Location: Santiago
(33.4378°S, 70.6505°W)
Time: 07:23:07
(UTC+00:00)

ISS - Pass Details

Date: 08 February 2026
Orbit: 413 x 428 km, 51.6° (Epoch: 13 February)

Event Time Altitude Azimuth Distance (km) Brightness Sun altitude
Rises 01:23:48 0° 276° (W) 2,399 0.9 -19.8°
Reaches altitude 10° 01:26:27 10° 254° (WSW) 1,540 0.1 -20.3°
Maximum altitude 01:28:47 17° 212° (SSW) 1,195 -0.6 -20.7°
Drops below altitude 10° 01:31:08 10° 169° (S) 1,551 -0.6 -21.1°
Sets 01:33:50 0° 147° (SSE) 2,425 0.2 -21.5°
